When you browse on this site, cookies collect data to enhance your experience and personalize the content and advertising you see.
Visit our Privacy Policy to learn more. By continuing to use the site, you agree to this use of cookies and data.
  • In Hungary
  • List of Countries
  • For 7 days
  • Water Temperature
  • Satellite Maps
  • Weather Map
  • News
  • Weather Widgets
  • user-avatar
    Login

    Hourly Weather Lindenhurst

    Today, 18 February, Monday

    Time Temperature Precipitation Wind Pressure Humidity
    00:00 0°C° 0.6 mm 3 mps 760 mmHg 76%
    01:00 +1°C° 0 mm 2 mps 759 mmHg 84%
    02:00 0°C° 0.7 mm 3 mps 759 mmHg 86%
    03:00 -1°C° 0.7 mm 4 mps 758 mmHg 88%
    04:00 -1°C° 0.7 mm 4 mps 758 mmHg 90%
    05:00 -1°C° 0.3 mm 4 mps 757 mmHg 91%
    06:00 0°C° 0.3 mm 3 mps 757 mmHg 91%
    07:00 +1°C° 0.3 mm 3 mps 756 mmHg 92%
    08:00 +1°C° 0.1 mm 3 mps 756 mmHg 92%
    09:00 +2°C° 0.1 mm 3 mps 756 mmHg 91%
    10:00 +2°C° 0.1 mm 3 mps 755 mmHg 90%
    11:00 +3°C° 0 mm 4 mps 755 mmHg 81%
    12:00 +5°C° 0 mm 5 mps 756 mmHg 71%
    13:00 +5°C° 0 mm 7 mps 756 mmHg 61%
    14:00 +4°C° 0 mm 7 mps 756 mmHg 57%
    15:00 +4°C° 0 mm 8 mps 757 mmHg 53%
    16:00 +3°C° 0 mm 9 mps 758 mmHg 49%
    17:00 +1°C° 0 mm 9 mps 760 mmHg 50%
    18:00 0°C° 0 mm 10 mps 761 mmHg 50%
    19:00 -3°C° 0 mm 10 mps 763 mmHg 51%
    20:00 -4°C° 0 mm 9 mps 764 mmHg 51%
    21:00 -4°C° 0 mm 9 mps 765 mmHg 51%
    22:00 -5°C° 0 mm 8 mps 766 mmHg 51%
    23:00 -5°C° 0 mm 8 mps 767 mmHg 49%

    Tomorrow, 19 February, Tuesday

    Time Temperature Precipitation Wind Pressure Humidity
    00:00 -6°C° 0 mm 8 mps 768 mmHg 47%
    01:00 -6°C° 0 mm 7 mps 769 mmHg 44%
    02:00 -7°C° 0 mm 7 mps 770 mmHg 44%
    03:00 -7°C° 0 mm 7 mps 770 mmHg 44%
    04:00 -7°C° 0 mm 7 mps 770 mmHg 44%
    05:00 -6°C° 0 mm 6 mps 771 mmHg 44%
    06:00 -8°C° 0 mm 6 mps 772 mmHg 45%
    07:00 -7°C° 0 mm 5 mps 773 mmHg 45%
    08:00 -6°C° 0 mm 5 mps 773 mmHg 43%
    09:00 -6°C° 0 mm 5 mps 774 mmHg 41%
    10:00 -4°C° 0 mm 4 mps 774 mmHg 39%
    11:00 -4°C° 0 mm 4 mps 774 mmHg 37%
    12:00 -3°C° 0 mm 4 mps 774 mmHg 35%
    13:00 -2°C° 0 mm 4 mps 774 mmHg 33%
    14:00 -2°C° 0 mm 4 mps 774 mmHg 33%
    15:00 -2°C° 0 mm 4 mps 774 mmHg 32%
    16:00 -1°C° 0 mm 4 mps 774 mmHg 32%
    17:00 -2°C° 0 mm 4 mps 775 mmHg 35%
    18:00 -2°C° 0 mm 5 mps 775 mmHg 38%
    19:00 -4°C° 0 mm 5 mps 776 mmHg 41%
    20:00 -3°C° 0 mm 4 mps 776 mmHg 42%
    21:00 -3°C° 0 mm 4 mps 776 mmHg 43%
    22:00 -4°C° 0 mm 4 mps 776 mmHg 44%
    23:00 -4°C° 0 mm 4 mps 776 mmHg 45%

    Day after tomorrow, 20 February, Wednesday

    Time Temperature Precipitation Wind Pressure Humidity
    00:00 -4°C° 0 mm 4 mps 776 mmHg 45%
    01:00 -4°C° 0 mm 4 mps 776 mmHg 46%
    02:00 -4°C° 0 mm 3 mps 776 mmHg 46%
    03:00 -3°C° 0 mm 2 mps 776 mmHg 45%
    04:00 -3°C° 0 mm 2 mps 776 mmHg 45%
    05:00 -1°C° 0 mm 1 mps 776 mmHg 45%
    06:00 -1°C° 0 mm 1 mps 776 mmHg 45%
    07:00 -1°C° 0 mm 1 mps 777 mmHg 46%
    08:00 -1°C° 0 mm 1 mps 777 mmHg 46%
    09:00 -2°C° 0 mm 2 mps 777 mmHg 45%
    10:00 -2°C° 0 mm 2 mps 777 mmHg 45%
    11:00 -2°C° 0 mm 2 mps 776 mmHg 47%
    12:00 -1°C° 0 mm 3 mps 776 mmHg 48%
    13:00 -1°C° 0 mm 3 mps 775 mmHg 50%
    14:00 -1°C° 0 mm 3 mps 775 mmHg 54%
    15:00 -2°C° 0 mm 4 mps 774 mmHg 58%
    16:00 -2°C° 0 mm 4 mps 773 mmHg 62%
    17:00 -2°C° 0.1 mm 5 mps 773 mmHg 67%
    18:00 -2°C° 0.1 mm 5 mps 773 mmHg 71%
    19:00 -1°C° 0.1 mm 5 mps 772 mmHg 76%
    20:00 -2°C° 0.2 mm 6 mps 771 mmHg 80%
    21:00 -1°C° 0.2 mm 6 mps 770 mmHg 85%
    22:00 -1°C° 0.2 mm 6 mps 770 mmHg 89%
    23:00 +1°C° 0.4 mm 6 mps 768 mmHg 91%

    21 February, Thursday

    Time Temperature Precipitation Wind Pressure Humidity
    00:00 +1°C° 0.4 mm 6 mps 767 mmHg 93%
    01:00 +2°C° 0.4 mm 5 mps 765 mmHg 95%
    02:00 +2°C° 1.4 mm 5 mps 764 mmHg 96%
    03:00 +3°C° 1.4 mm 5 mps 762 mmHg 97%
    04:00 +5°C° 1.4 mm 5 mps 760 mmHg 98%
    05:00 +5°C° 2.2 mm 5 mps 759 mmHg 98%
    06:00 +6°C° 2.2 mm 5 mps 759 mmHg 98%
    07:00 +7°C° 2.2 mm 5 mps 758 mmHg 98%
    08:00 +7°C° 0 mm 6 mps 758 mmHg 95%
    09:00 +7°C° 0 mm 6 mps 758 mmHg 92%
    10:00 +6°C° 0 mm 7 mps 758 mmHg 88%
    11:00 +9°C° 0 mm 7 mps 757 mmHg 80%
    12:00 +10°C° 0 mm 7 mps 757 mmHg 72%
    13:00 +11°C° 0 mm 7 mps 757 mmHg 63%
    14:00 +12°C° 0 mm 7 mps 757 mmHg 58%
    15:00 +12°C° 0 mm 7 mps 758 mmHg 53%
    16:00 +12°C° 0 mm 7 mps 758 mmHg 48%
    17:00 +11°C° 0 mm 7 mps 759 mmHg 51%
    18:00 +9°C° 0 mm 6 mps 760 mmHg 53%
    19:00 +8°C° 0 mm 6 mps 761 mmHg 56%
    20:00 +6°C° 0 mm 7 mps 762 mmHg 56%
    21:00 +5°C° 0 mm 7 mps 763 mmHg 56%
    22:00 +4°C° 0 mm 7 mps 764 mmHg 56%
    23:00 +4°C° 0 mm 7 mps 764 mmHg 57%

    22 February, Friday

    Time Temperature Precipitation Wind Pressure Humidity
    00:00 +3°C° 0 mm 6 mps 765 mmHg 58%
    01:00 +2°C° 0 mm 6 mps 765 mmHg 59%
    02:00 +2°C° 0 mm 6 mps 766 mmHg 59%
    03:00 +2°C° 0 mm 5 mps 766 mmHg 58%
    04:00 +2°C° 0 mm 5 mps 766 mmHg 58%
    05:00 +1°C° 0 mm 5 mps 767 mmHg 59%
    06:00 +1°C° 0 mm 4 mps 768 mmHg 60%
    07:00 +2°C° 0 mm 3 mps 768 mmHg 60%
    08:00 +2°C° 0 mm 3 mps 769 mmHg 58%
    09:00 +4°C° 0 mm 2 mps 769 mmHg 56%
    10:00 +4°C° 0 mm 2 mps 770 mmHg 54%
    11:00 +5°C° 0 mm 2 mps 770 mmHg 50%
    12:00 +6°C° 0 mm 2 mps 769 mmHg 47%
    13:00 +8°C° 0 mm 1 mps 769 mmHg 43%
    14:00 +8°C° 0 mm 1 mps 769 mmHg 43%
    15:00 +8°C° 0 mm 1 mps 769 mmHg 43%
    16:00 +8°C° 0 mm 1 mps 769 mmHg 42%
    17:00 +8°C° 0 mm 1 mps 770 mmHg 45%
    18:00 +7°C° 0 mm 1 mps 770 mmHg 47%
    19:00 +7°C° 0 mm 1 mps 771 mmHg 49%
    20:00 +6°C° 0 mm 2 mps 771 mmHg 53%
    21:00 +5°C° 0 mm 2 mps 771 mmHg 57%
    22:00 +5°C° 0 mm 2 mps 772 mmHg 60%
    23:00 +5°C° 0 mm 2 mps 771 mmHg 63%

    23 February, Saturday

    Time Temperature Precipitation Wind Pressure Humidity
    00:00 +5°C° 0 mm 1 mps 771 mmHg 65%
    01:00 +5°C° 0 mm 1 mps 771 mmHg 68%
    02:00 +3°C° 0 mm 2 mps 771 mmHg 67%
    03:00 +3°C° 0 mm 2 mps 771 mmHg 67%
    04:00 +1°C° 0 mm 3 mps 772 mmHg 67%
    05:00 +1°C° 0 mm 3 mps 772 mmHg 67%
    06:00 +1°C° 0 mm 3 mps 772 mmHg 68%
    07:00 +1°C° 0 mm 3 mps 772 mmHg 68%
    08:00 +2°C° 0 mm 3 mps 772 mmHg 67%
    09:00 +4°C° 0 mm 2 mps 772 mmHg 66%
    10:00 +4°C° 0 mm 2 mps 772 mmHg 64%
    11:00 +5°C° 0 mm 2 mps 771 mmHg 62%
    12:00 +5°C° 0 mm 3 mps 770 mmHg 59%
    13:00 +7°C° 0 mm 3 mps 770 mmHg 57%
    14:00 +7°C° 0 mm 3 mps 769 mmHg 57%
    15:00 +7°C° 0 mm 3 mps 769 mmHg 57%
    16:00 +6°C° 0 mm 4 mps 768 mmHg 57%
    17:00 +5°C° 0 mm 3 mps 768 mmHg 60%
    18:00 +5°C° 0 mm 3 mps 768 mmHg 64%
    19:00 +5°C° 0 mm 3 mps 767 mmHg 67%
    20:00 +5°C° 0 mm 3 mps 767 mmHg 68%
    21:00 +5°C° 0 mm 3 mps 766 mmHg 68%
    22:00 +5°C° 0 mm 3 mps 766 mmHg 69%
    23:00 +6°C° 0 mm 2 mps 765 mmHg 70%
    Show more